Paris/Le Bourget, France

11:47 AM CET on February 22, 2017 (GMT +0100)
Le Bourget

Weather History for LFPB - August, 2013

Change the Weather History Date:

Tuesday, August 13, 2013

  Actual Average Record
Temperature  
Mean Temperature 62 °F -  
Max Temperature 71 °F 72 °F 93 °F (2003)
Min Temperature 53 °F 55 °F 50 °F (1999)
Degree Days  
Heating Degree Days 3    
Growing Degree Days 12 (Base 50)    
Moisture  
Dew Point 48 °F    
Average Humidity 62    
Maximum Humidity 94    
Minimum Humidity 40    
Precipitation  
Precipitation 0.00 in 0.07 in - ()
Sea Level Pressure  
Sea Level Pressure 30.17 in    
Wind  
Wind Speed 5 mph ()    
Max Wind Speed 9 mph    
Max Gust Speed -    
Visibility 6.2 miles    
Events      
Averages and records for this station are not official NWS values.
T = Trace of Precipitation, MM = Missing Value Source: Averaged Metar Reports

Daily Weather History Graph

Daily Weather History Graph

Search for Another Location

Airport or City:

Trip Planner

Search our weather history database for the weather conditions in past years. The results will help you decide how hot, cold, wet, or windy it might be!

Date:

Astronomy

Aug. 13, 2013 Rise Set
Actual Time 6:39 AM CEST 9:09 PM CEST
Civil Twilight 6:04 AM CEST 9:44 PM CEST
Nautical Twilight 5:19 AM CEST 10:28 PM CEST
Astronomical Twilight 4:27 AM CEST 11:20 PM CEST
Moon 1:58 PM CEST (8/13) 11:51 PM CEST (8/13)
Length of Visible Light 15h 40m
Length of Day
14h 29m
Waxing Crescent, 39% of the Moon is Illuminated
Aug 13
Waxing Crescent
Aug 14
First Quarter
Aug 21
Full
Aug 28
Last Quarter
Sep 5
New

Hourly Weather History & Observations

Time (CEST) Temp. Dew Point Humidity Pressure Visibility Wind Dir Wind Speed Gust Speed Precip Events Conditions
12:00 AM 60.8 °F 48.2 °F 63% 30.09 in 6.2 mi NW 5.8 mph - N/A   Partly Cloudy
12:30 AM 59.0 °F 48.2 °F 67% 30.12 in 6.2 mi WNW 6.9 mph - N/A   Unknown
1:00 AM 59.0 °F 48.2 °F 67% 30.12 in 6.2 mi WNW 6.9 mph - N/A   Unknown
1:30 AM 57.2 °F 50.0 °F 77% 30.12 in 6.2 mi NW 4.6 mph - N/A   Unknown
2:00 AM 57.2 °F 48.2 °F 72% 30.12 in 6.2 mi West 4.6 mph - N/A   Unknown
2:30 AM 55.4 °F 48.2 °F 77% 30.12 in 6.2 mi West 5.8 mph - N/A   Unknown
3:00 AM 55.4 °F 48.2 °F 77% 30.12 in 6.2 mi Variable 3.5 mph - N/A   Unknown
3:30 AM 55.4 °F 48.2 °F 77% 30.12 in 6.2 mi West 4.6 mph - N/A   Unknown
4:00 AM 55.4 °F 50.0 °F 82% 30.12 in 6.2 mi West 5.8 mph - N/A   Unknown
4:30 AM 55.4 °F 50.0 °F 82% 30.12 in 6.2 mi West 3.5 mph - N/A   Unknown
5:00 AM 55.4 °F 50.0 °F 82% 30.12 in 6.2 mi West 3.5 mph - N/A   Unknown
5:30 AM 55.4 °F 50.0 °F 82% 30.12 in 6.2 mi West 4.6 mph - N/A   Unknown
6:00 AM 53.6 °F 48.2 °F 82% 30.12 in 6.2 mi West 4.6 mph - N/A   Unknown
6:30 AM 53.6 °F 50.0 °F 88% 30.15 in 6.2 mi West 4.6 mph - N/A   Unknown
7:00 AM 53.6 °F 50.0 °F 88% 30.15 in 6.2 mi West 3.5 mph - N/A   Unknown
7:30 AM 53.6 °F 51.8 °F 94% 30.15 in 6.2 mi West 4.6 mph - N/A   Unknown
8:00 AM 55.4 °F 51.8 °F 88% 30.15 in 6.2 mi West 4.6 mph - N/A   Unknown
8:30 AM 57.2 °F 51.8 °F 82% 30.15 in 6.2 mi West 3.5 mph - N/A   Unknown
9:00 AM 59.0 °F 53.6 °F 82% 30.18 in 6.2 mi NW 4.6 mph - N/A   Unknown
9:30 AM 60.8 °F 51.8 °F 72% 30.18 in 6.2 mi NW 4.6 mph - N/A   Unknown
10:00 AM 62.6 °F 53.6 °F 72% 30.18 in 6.2 mi NW 4.6 mph - N/A   Unknown
10:30 AM 62.6 °F 51.8 °F 68% 30.18 in 6.2 mi NNW 5.8 mph - N/A   Unknown
11:00 AM 64.4 °F 51.8 °F 64% 30.18 in 6.2 mi WNW 6.9 mph - N/A   Partly Cloudy
11:30 AM 66.2 °F 51.8 °F 60% 30.18 in 6.2 mi NNW 5.8 mph - N/A   Unknown
12:00 PM 66.2 °F 50.0 °F 56% 30.21 in 6.2 mi WNW 6.9 mph - N/A   Mostly Cloudy
12:30 PM 66.2 °F 48.2 °F 52% 30.21 in 6.2 mi NW 6.9 mph - N/A   Partly Cloudy
1:00 PM 66.2 °F 48.2 °F 52% 30.21 in 6.2 mi NW 8.1 mph - N/A   Scattered Clouds
1:30 PM 68.0 °F 46.4 °F 46% 30.18 in 6.2 mi NNW 8.1 mph - N/A   Mostly Cloudy
2:00 PM 68.0 °F 46.4 °F 46% 30.18 in 6.2 mi WNW 8.1 mph - N/A   Mostly Cloudy
2:30 PM 69.8 °F 46.4 °F 43% 30.18 in 6.2 mi WNW 6.9 mph - N/A   Unknown
3:00 PM 69.8 °F 46.4 °F 43% 30.18 in 6.2 mi North 6.9 mph - N/A   Unknown
3:30 PM 71.6 °F 46.4 °F 41% 30.18 in 6.2 mi WNW 6.9 mph - N/A   Unknown
4:00 PM 69.8 °F 46.4 °F 43% 30.18 in 6.2 mi NW 8.1 mph - N/A   Unknown
4:30 PM 69.8 °F 48.2 °F 46% 30.18 in 6.2 mi WNW 9.2 mph - N/A   Unknown
5:00 PM 69.8 °F 48.2 °F 46% 30.18 in 6.2 mi WNW 9.2 mph - N/A   Unknown
5:30 PM 69.8 °F 46.4 °F 43% 30.18 in 6.2 mi NW 8.1 mph - N/A   Unknown
6:00 PM 69.8 °F 46.4 °F 43% 30.18 in 6.2 mi WNW 8.1 mph - N/A   Unknown
6:30 PM 69.8 °F 46.4 °F 43% 30.18 in 6.2 mi NW 9.2 mph - N/A   Unknown
7:00 PM 69.8 °F 44.6 °F 40% 30.18 in 6.2 mi NW 9.2 mph - N/A   Unknown
7:30 PM 68.0 °F 42.8 °F 40% 30.18 in 6.2 mi NW 9.2 mph - N/A   Unknown
8:00 PM 68.0 °F 42.8 °F 40% 30.18 in 6.2 mi WNW 6.9 mph - N/A   Unknown
8:30 PM 66.2 °F 42.8 °F 43% 30.21 in 6.2 mi NW 6.9 mph - N/A   Unknown
9:00 PM 64.4 °F 44.6 °F 49% 30.21 in 6.2 mi NNW 5.8 mph - N/A   Unknown
9:30 PM 62.6 °F 44.6 °F 52% 30.21 in 6.2 mi NNW 4.6 mph - N/A   Unknown
10:00 PM 62.6 °F 44.6 °F 52% 30.21 in 6.2 mi NNW 4.6 mph - N/A   Unknown
10:30 PM 60.8 °F 44.6 °F 55% 30.24 in 6.2 mi NNW 3.5 mph - N/A   Unknown
11:00 PM 60.8 °F 44.6 °F 55% 30.24 in 6.2 mi NNW 4.6 mph - N/A   Unknown
11:30 PM 59.0 °F 46.4 °F 63% 30.24 in 6.2 mi NNW 3.5 mph - N/A   Unknown